Glens Falls, NY

8:59 PM EDT on September 24, 2017 (GMT -0400)
Bennett Memorial

Weather History for KGFL - February, 2013

Change the Weather History Date:

Saturday, February 16, 2013

  Actual Average Record
Temperature  
Mean Temperature 28 °F 22 °F  
Max Temperature 34 °F 33 °F 61 °F (1981)
Min Temperature 22 °F 10 °F -24 °F (2004)
Degree Days  
Heating Degree Days 37 44  
Month to date heating degree days 709 724  
Since 1 July heating degree days 4654 5120  
Cooling Degree Days 0 0  
Month to date cooling degree days 0 0  
Year to date cooling degree days 0 0  
Moisture  
Dew Point 15 °F    
Average Humidity 66    
Maximum Humidity 92    
Minimum Humidity 39    
Precipitation  
Precipitation T in 0.06 in 0.99 in (1954)
Month to date precipitation 0.20 1.18  
Year to date precipitation 1.48 4.04  
Sea Level Pressure  
Sea Level Pressure 29.97 in    
Wind  
Wind Speed 6 mph (NNE)    
Max Wind Speed 18 mph    
Max Gust Speed 22 mph    
Visibility 10 miles    
Events Snow    
T = Trace of Precipitation, MM = Missing Value Source: NWS Daily Summary

Daily Weather History Graph

Daily Weather History Graph

Search for Another Location

Airport or City:

Trip Planner

Search our weather history database for the weather conditions in past years. The results will help you decide how hot, cold, wet, or windy it might be!

Date:

Astronomy

Feb. 16, 2013 Rise Set
Actual Time 6:50 AM EST 5:26 PM EST
Civil Twilight 6:21 AM EST 5:56 PM EST
Nautical Twilight 5:48 AM EST 6:29 PM EST
Astronomical Twilight 5:15 AM EST 7:02 PM EST
Moon 9:49 AM EST (2/16) No Moon Set
Length of Visible Light 11h 34m
Length of Day
10h 36m
Waxing Crescent, 39% of the Moon is Illuminated
Feb 16
Waxing Crescent
Feb 17
First Quarter
Feb 25
Full
Mar 4
Last Quarter
Mar 11
New

Hourly Weather History & Observations

Time (EST) Temp. Windchill Dew Point Humidity Pressure Visibility Wind Dir Wind Speed Gust Speed Precip Events Conditions
12:53 AM 33.1 °F - 19.0 °F 56% 30.00 in 9.0 mi Calm Calm - 0.00 in Snow Light Snow
1:53 AM 30.0 °F - 26.1 °F 85% 30.00 in 10.0 mi Calm Calm - N/A   Overcast
2:53 AM 28.9 °F - 26.1 °F 89% 29.99 in 10.0 mi Calm Calm - N/A   Mostly Cloudy
3:53 AM 28.0 °F - 25.0 °F 88% 29.98 in 10.0 mi Calm Calm - N/A   Mostly Cloudy
4:53 AM 26.1 °F 21.9 °F 23.0 °F 88% 29.98 in 10.0 mi SW 3.5 mph - N/A   Mostly Cloudy
5:53 AM 25.0 °F - 21.9 °F 88% 29.98 in 10.0 mi Calm Calm - N/A   Mostly Cloudy
6:53 AM 25.0 °F - 21.9 °F 88% 29.99 in 10.0 mi Calm Calm - N/A   Mostly Cloudy
7:53 AM 28.0 °F 22.8 °F 18.0 °F 66% 30.01 in 10.0 mi NW 4.6 mph - N/A   Mostly Cloudy
8:53 AM 28.0 °F 19.3 °F 17.1 °F 63% 30.01 in 10.0 mi North 9.2 mph - N/A   Mostly Cloudy
9:53 AM 28.9 °F 23.9 °F 15.1 °F 56% 30.01 in 10.0 mi Variable 4.6 mph - N/A   Clear
10:53 AM 30.0 °F - 14.0 °F 51% 29.99 in 10.0 mi Calm Calm - N/A   Scattered Clouds
11:53 AM 30.9 °F 27.5 °F 14.0 °F 50% 29.97 in 10.0 mi Variable 3.5 mph - N/A   Mostly Cloudy
12:53 PM 32.0 °F 28.7 °F 12.0 °F 44% 29.95 in 10.0 mi Variable 3.5 mph - N/A   Mostly Cloudy
1:53 PM 32.0 °F 23.6 °F 10.0 °F 40% 29.93 in 10.0 mi North 10.4 mph - N/A   Clear
2:53 PM 32.0 °F 24.2 °F 15.1 °F 50% 29.93 in 10.0 mi ENE 9.2 mph - N/A   Partly Cloudy
3:53 PM 30.9 °F 21.2 °F 15.1 °F 52% 29.93 in 10.0 mi NE 12.7 mph - N/A   Clear
4:53 PM 28.9 °F 19.2 °F 14.0 °F 54% 29.94 in 10.0 mi NE 11.5 mph - N/A   Clear
5:53 PM 28.0 °F 19.3 °F 10.9 °F 49% 29.96 in 10.0 mi NE 9.2 mph - N/A   Clear
6:53 PM 26.1 °F 14.5 °F 10.0 °F 51% 29.96 in 10.0 mi North 13.8 mph - N/A   Partly Cloudy
7:53 PM 25.0 °F 13.1 °F 7.0 °F 46% 29.96 in 10.0 mi NNE 13.8 mph - N/A   Overcast
8:53 PM 24.1 °F 16.0 °F 7.0 °F 48% 29.96 in 10.0 mi North 6.9 mph - N/A   Clear
9:53 PM 23.0 °F 13.9 °F 7.0 °F 50% 29.93 in 10.0 mi NNE 8.1 mph - N/A   Clear
10:53 PM 21.9 °F 11.7 °F 7.0 °F 53% 29.92 in 10.0 mi NNE 9.2 mph - N/A   Clear
11:53 PM 21.9 °F 11.7 °F 5.0 °F 48% 29.90 in 10.0 mi North 9.2 mph - N/A   Clear